TimeCDT,TemperatureF,Dew PointF,Humidity,Sea Level PressureIn,VisibilityMPH,Wind Direction,Wind SpeedMPH,Gust SpeedMPH,PrecipitationIn,Events,Conditions,WindDirDegrees,DateUTC
12:15 AM,64.4,57.2,77,30.17,10.0,ESE,3.5,-,N/A,,Clear,120,2013-05-26 05:15:00
12:35 AM,64.4,59.0,83,30.18,10.0,Calm,Calm,-,N/A,,Clear,0,2013-05-26 05:35:00
12:55 AM,62.6,59.0,88,30.18,10.0,Calm,Calm,-,N/A,,Clear,0,2013-05-26 05:55:00
1:15 AM,62.6,59.0,88,30.17,10.0,ENE,3.5,-,N/A,,Clear,60,2013-05-26 06:15:00
1:35 AM,62.6,59.0,88,30.17,10.0,NE,3.5,-,N/A,,Clear,50,2013-05-26 06:35:00
1:55 AM,62.6,59.0,88,30.17,10.0,Calm,Calm,-,N/A,,Clear,0,2013-05-26 06:55:00
2:15 AM,62.6,57.2,82,30.16,10.0,East,3.5,-,N/A,,Clear,90,2013-05-26 07:15:00
2:35 AM,62.6,57.2,82,30.16,10.0,Calm,Calm,-,N/A,,Clear,0,2013-05-26 07:35:00
2:55 AM,60.8,59.0,94,30.16,10.0,Calm,Calm,-,N/A,,Clear,0,2013-05-26 07:55:00
3:15 AM,59.0,59.0,100,30.16,10.0,Calm,Calm,-,N/A,,Clear,0,2013-05-26 08:15:00
3:35 AM,60.8,59.0,94,30.15,10.0,Calm,Calm,-,N/A,,Clear,0,2013-05-26 08:35:00
3:55 AM,60.8,59.0,94,30.16,10.0,Calm,Calm,-,N/A,,Clear,0,2013-05-26 08:55:00
4:15 AM,59.0,59.0,100,30.15,10.0,Calm,Calm,-,N/A,,Clear,0,2013-05-26 09:15:00
4:35 AM,59.0,59.0,100,30.16,10.0,NE,4.6,-,N/A,,Clear,50,2013-05-26 09:35:00
4:55 AM,59.0,59.0,100,30.15,10.0,Calm,Calm,-,N/A,,Clear,0,2013-05-26 09:55:00
5:15 AM,59.0,59.0,100,30.16,10.0,NE,4.6,-,N/A,,Clear,40,2013-05-26 10:15:00
5:35 AM,59.0,59.0,100,30.17,9.0,Calm,Calm,-,N/A,,Clear,0,2013-05-26 10:35:00
5:55 AM,59.0,59.0,100,30.17,10.0,Calm,Calm,-,N/A,,Clear,0,2013-05-26 10:55:00
6:15 AM,60.8,59.0,94,30.17,10.0,Calm,Calm,-,N/A,,Clear,0,2013-05-26 11:15:00
6:35 AM,60.8,59.0,94,30.17,9.0,Calm,Calm,-,N/A,,Clear,0,2013-05-26 11:35:00
6:55 AM,62.6,59.0,88,30.17,10.0,ESE,3.5,-,N/A,,Clear,120,2013-05-26 11:55:00
7:15 AM,64.4,59.0,83,30.17,10.0,ESE,4.6,-,N/A,,Clear,120,2013-05-26 12:15:00
7:35 AM,66.2,59.0,78,30.17,10.0,SE,5.8,-,N/A,,Clear,130,2013-05-26 12:35:00
7:55 AM,68.0,59.0,73,30.17,10.0,SSE,8.1,-,N/A,,Clear,160,2013-05-26 12:55:00
8:15 AM,69.8,59.0,68,30.19,10.0,South,8.1,-,N/A,,Clear,190,2013-05-26 13:15:00
8:35 AM,71.6,59.0,64,30.19,10.0,SW,4.6,-,N/A,,Clear,220,2013-05-26 13:35:00
8:55 AM,73.4,59.0,61,30.19,9.0,South,8.1,-,N/A,,Clear,170,2013-05-26 13:55:00
9:15 AM,73.4,59.0,61,30.19,8.0,South,6.9,-,N/A,,Clear,190,2013-05-26 14:15:00
9:35 AM,75.2,59.0,57,30.19,10.0,SSW,10.4,-,N/A,,Clear,210,2013-05-26 14:35:00
9:55 AM,75.2,59.0,57,30.18,10.0,SSW,8.1,-,N/A,,Clear,200,2013-05-26 14:55:00
10:15 AM,77.0,59.0,54,30.19,10.0,SW,11.5,-,N/A,,Clear,220,2013-05-26 15:15:00
10:35 AM,78.8,59.0,51,30.19,10.0,SSW,10.4,-,N/A,,Unknown,200,2013-05-26 15:35:00
10:55 AM,78.8,59.0,51,30.19,10.0,SSW,6.9,-,N/A,,Clear,200,2013-05-26 15:55:00
11:15 AM,80.6,59.0,48,30.19,10.0,SW,11.5,17.3,N/A,,Clear,220,2013-05-26 16:15:00
11:35 AM,80.6,59.0,48,30.19,10.0,SW,12.7,-,N/A,,Clear,230,2013-05-26 16:35:00
11:55 AM,82.4,59.0,45,30.18,10.0,SW,9.2,16.1,N/A,,Clear,230,2013-05-26 16:55:00
12:15 PM,82.4,59.0,45,30.17,10.0,SSW,11.5,-,N/A,,Clear,200,2013-05-26 17:15:00
12:35 PM,82.4,59.0,45,30.17,10.0,SW,12.7,18.4,N/A,,Unknown,230,2013-05-26 17:35:00
12:55 PM,82.4,59.0,45,30.16,10.0,SSW,11.5,-,N/A,,Clear,200,2013-05-26 17:55:00
1:15 PM,84.2,59.0,42,30.16,10.0,South,9.2,-,N/A,,Clear,190,2013-05-26 18:15:00
1:35 PM,84.2,60.8,45,30.15,10.0,South,12.7,20.7,N/A,,Clear,180,2013-05-26 18:35:00
1:55 PM,84.2,59.0,42,30.14,10.0,South,13.8,21.9,N/A,,Clear,170,2013-05-26 18:55:00
2:15 PM,84.2,59.0,42,30.14,10.0,South,9.2,16.1,N/A,,Clear,170,2013-05-26 19:15:00
2:35 PM,84.2,59.0,42,30.13,10.0,SSW,11.5,16.1,N/A,,Clear,200,2013-05-26 19:35:00
2:55 PM,84.2,60.8,45,30.12,9.0,SSW,13.8,-,N/A,,Clear,200,2013-05-26 19:55:00
3:15 PM,84.2,60.8,45,30.11,9.0,South,10.4,-,N/A,,Clear,180,2013-05-26 20:15:00
3:35 PM,84.2,60.8,45,30.10,10.0,SSE,10.4,-,N/A,,Clear,160,2013-05-26 20:35:00
3:55 PM,84.2,60.8,45,30.09,10.0,South,15.0,21.9,N/A,,Clear,170,2013-05-26 20:55:00
4:15 PM,86.0,60.8,43,30.09,9.0,South,10.4,17.3,N/A,,Clear,170,2013-05-26 21:15:00
4:35 PM,84.2,59.0,42,30.08,10.0,South,12.7,-,N/A,,Clear,180,2013-05-26 21:35:00
4:55 PM,84.2,59.0,42,30.08,10.0,South,13.8,-,N/A,Rain,Light Rain,170,2013-05-26 21:55:00
5:15 PM,84.2,59.0,42,30.07,10.0,SSE,8.1,-,N/A,Rain,Light Rain,160,2013-05-26 22:15:00
5:35 PM,84.2,57.2,40,30.06,10.0,South,12.7,-,N/A,Rain,Light Rain,180,2013-05-26 22:35:00
5:55 PM,84.2,57.2,40,30.06,10.0,SSE,12.7,17.3,N/A,Rain,Light Rain,160,2013-05-26 22:55:00
6:15 PM,84.2,57.2,40,30.05,10.0,South,12.7,-,N/A,,Clear,170,2013-05-26 23:15:00
6:35 PM,82.4,57.2,42,30.06,10.0,South,10.4,-,N/A,,Clear,170,2013-05-26 23:35:00
6:55 PM,82.4,57.2,42,30.05,10.0,South,9.2,-,N/A,,Clear,180,2013-05-26 23:55:00
7:15 PM,80.6,57.2,45,30.06,10.0,South,9.2,-,N/A,,Clear,170,2013-05-27 00:15:00
7:35 PM,77.0,57.2,50,30.06,10.0,SSE,6.9,-,N/A,,Clear,160,2013-05-27 00:35:00
7:55 PM,77.0,57.2,50,30.06,10.0,SSE,5.8,-,N/A,,Clear,150,2013-05-27 00:55:00
8:15 PM,75.2,55.4,50,30.07,10.0,SSE,8.1,-,N/A,,Clear,160,2013-05-27 01:15:00
8:35 PM,73.4,55.4,53,30.07,10.0,South,8.1,-,N/A,,Clear,170,2013-05-27 01:35:00
8:55 PM,73.4,55.4,53,30.07,10.0,South,8.1,-,N/A,,Clear,180,2013-05-27 01:55:00
9:15 PM,73.4,55.4,53,30.07,10.0,SSE,8.1,-,N/A,,Clear,160,2013-05-27 02:15:00
9:35 PM,71.6,55.4,57,30.07,10.0,South,5.8,-,N/A,,Clear,170,2013-05-27 02:35:00
9:55 PM,71.6,55.4,57,30.08,10.0,SSE,6.9,-,N/A,,Clear,150,2013-05-27 02:55:00
10:15 PM,69.8,55.4,60,30.07,10.0,SE,8.1,-,N/A,,Clear,140,2013-05-27 03:15:00
10:35 PM,71.6,55.4,57,30.07,10.0,SSE,5.8,-,N/A,,Clear,160,2013-05-27 03:35:00
10:55 PM,71.6,55.4,57,30.07,10.0,SSE,9.2,-,N/A,,Clear,160,2013-05-27 03:55:00
11:15 PM,71.6,55.4,57,30.06,10.0,South,9.2,-,N/A,,Clear,180,2013-05-27 04:15:00
11:35 PM,71.6,55.4,57,30.07,10.0,South,9.2,-,N/A,,Clear,180,2013-05-27 04:35:00
11:55 PM,71.6,57.2,60,30.07,10.0,South,8.1,-,N/A,,Clear,180,2013-05-27 04:55:00